sat.trackr.live / text

‹ back to catalog

STARLINK-33977

NORAD 64344 · 2025-126A

PAYLOAD ACTIVE UNKNOWN

§ Identity

Operator
Country
US
Launch date
2025-06-13
Launch site
AFWTR
Launch vehicle
Mass (kg)
RCS (m²)

Purposes: comms

External: N2YO · Heavens-Above · Gunter

§ Orbital elements

Epoch: 2026-05-25T03:07:47.097408Z

Period
96.11 min
Inclination
70.0006°
Eccentricity
0.0003825
Mean motion
14.98335144 rev/d
Perigee alt
569.4 km
Apogee alt
574.7 km
Semi-major
6,950.2 km
B*
1.4836e-4
RAAN
201.6583°
Arg perigee
267.6032°
Mean anomaly
92.4690°
Rev number
5,334

§ Raw data

STARLINK-339771 64344U 25126A   26145.13040622  .00001678  00000+0  14836-3 0  99992 64344  70.0006 201.6583 0003825 267.6032  92.4690 14.98335144 53342

JSON: /api/v1/satellites/64344 · /tle

For live sub-satellite position, see the globe view (requires WebGL).

§ Visibility from observer

Set your observer location to see the next 7 days of passes ≥ 10°. The values pass through the URL so the page stays shareable.

No JS? Fill the form by hand. The geolocation button needs JavaScript.